EW9372 Weather Reports


Display with metric or nautical units.
time (UTC)temp
F
wind
direction
speed
MPH
gust
MPH
rain 1hr
in
rain 24hr
in
rain mn
in
humidity
%
barometer
mb
20260502130413 55 207 1.0 3.0 0.00 0.00 0.00 79 1009.1
20260502123201 55 214 1.0 3.0 0.00 0.00 0.00 79 1008.9
20260502122702 55 211 1.0 4.0 0.00 0.00 0.00 78 1009.0
20260502122657 55 200 1.0 4.0 0.00 0.00 0.00 79 1009.0
20260502121659 55 205 1.0 2.0 0.00 0.00 0.00 79 1009.0
20260502121655 55 203 1.0 4.0 0.00 0.00 0.00 79 1009.0
20260502120642 55 186 1.0 1.0 0.00 0.00 0.00 79 1008.9
20260502115249 56 208 2.0 5.0 0.00 0.00 0.00 78 1009.0
20260502114749 56 197 2.0 2.0 0.00 0.00 0.00 78 1009.1
20260502113320 56 207 2.0 6.0 0.00 0.00 0.00 78 1009.0
20260502112818 56 198 2.0 4.0 0.00 0.00 0.00 78 1008.9
20260502112320 56 167 1.0 4.0 0.00 0.00 0.00 78 1009.0
20260502111819 56 180 1.0 5.0 0.00 0.00 0.00 79 1009.0
20260502111319 57 178 2.0 5.0 0.00 0.00 0.00 79 1009.0
20260502110818 57 186 1.0 5.0 0.00 0.00 0.00 79 1009.2
20260502110319 57 200 1.0 5.0 0.00 0.00 0.00 80 1009.2
20260502105817 57 203 1.0 5.0 0.00 0.00 0.00 80 1009.2
20260502105317 57 196 2.0 5.0 0.00 0.00 0.00 80 1009.3
20260502104821 57 194 3.0 6.0 0.00 0.00 0.00 80 1009.3
20260502104816 57 184 2.0 6.0 0.00 0.00 0.00 80 1009.3
20260502102726 58 196 2.0 6.0 0.00 0.00 0.00 78 1009.2
20260502102227 58 190 3.0 6.0 0.00 0.00 0.00 78 1009.2
20260502101740 58 184 2.0 6.0 0.00 0.00 0.00 77 1009.2
20260502101725 58 198 4.0 6.0 0.00 0.00 0.00 78 1009.2
20260502101128 59 169 1.0 3.0 0.00 0.00 0.00 76 1009.3
20260502091119 60 214 3.0 2.0 0.00 0.00 0.00 75 1009.5
20260502071404 63 196 3.0 6.0 0.00 0.00 0.00 73 1010.0
20260502070900 64 193 3.0 6.0 0.00 0.00 0.00 72 1010.0
20260502070355 64 204 3.0 6.0 0.00 0.00 0.00 72 1010.0
20260502065858 64 185 3.0 7.0 0.00 0.00 0.00 72 1010.0
20260502065356 65 182 2.0 7.0 0.00 0.00 0.00 71 1010.0
20260502064855 65 206 2.0 6.0 0.00 0.00 0.00 72 1010.0
20260502064358 65 142 2.0 6.0 0.00 0.00 0.00 72 1009.9
20260502064354 65 165 2.0 6.0 0.00 0.00 0.00 72 1010.0
20260502063355 65 153 2.0 6.0 0.00 0.00 0.00 71 1009.9
20260502062859 66 198 2.0 3.0 0.00 0.00 0.00 71 1009.9
20260502062852 66 119 2.0 5.0 0.00 0.00 0.00 72 1009.9
20260502061231 66 188 2.0 6.0 0.00 0.00 0.00 71 1010.0
20260502060733 66 199 2.0 6.0 0.00 0.00 0.00 70 1010.0
20260502060227 67 180 2.0 5.0 0.00 0.00 0.00 70 1010.0
20260502055725 67 198 3.0 5.0 0.00 0.00 0.00 70 1010.0
20260502055225 67 185 3.0 5.0 0.00 0.00 0.00 70 1010.0
20260502054725 67 209 3.0 3.0 0.00 0.00 0.00 69 1010.1
20260502053201 68 198 2.0 5.0 0.00 0.00 0.00 68 1009.9
20260502052658 68 186 2.0 5.0 0.00 0.00 0.00 68 1010.0
20260502052157 68 178 2.0 5.0 0.00 0.00 0.00 67 1010.0
20260502051719 69 165 2.0 5.0 0.00 0.00 0.00 67 1010.1
20260502051151 69 180 2.0 2.0 0.00 0.00 0.00 66 1010.0
20260502045617 70 176 1.0 4.0 0.00 0.00 0.00 63 1010.1
20260502045117 70 162 1.0 4.0 0.00 0.00 0.00 62 1010.0
20260502044618 71 171 1.0 4.0 0.00 0.00 0.00 62 1010.0
20260502044122 71 206 1.0 3.0 0.00 0.00 0.00 61 1010.0
20260502044117 71 198 1.0 3.0 0.00 0.00 0.00 62 1010.0
20260502043113 71 217 1.0 3.0 0.00 0.00 0.00 61 1009.9
20260502042610 72 223 1.0 4.0 0.00 0.00 0.00 61 1009.9
20260502042108 72 225 1.0 4.0 0.00 0.00 0.00 60 1009.9
20260502041603 72 229 1.0 3.0 0.00 0.00 0.00 59 1009.6
20260502041101 73 205 2.0 3.0 0.00 0.00 0.00 59 1009.5
20260502040606 73 229 2.0 2.0 0.00 0.00 0.00 58 1009.5
20260502035951 74 223 2.0 5.0 0.00 0.00 0.00 58 1009.6
20260502034934 74 223 2.0 5.0 0.00 0.00 0.00 59 1009.5
20260502034439 74 229 3.0 5.0 0.00 0.00 0.00 58 1009.4
20260502033934 74 215 2.0 5.0 0.00 0.00 0.00 58 1009.3
20260502033433 75 229 2.0 5.0 0.00 0.00 0.00 58 1009.2
20260502032936 75 238 2.0 4.0 0.00 0.00 0.00 58 1009.1
20260502032439 75 229 3.0 4.0 0.00 0.00 0.00 57 1009.2
20260502031934 76 245 3.0 3.0 0.00 0.00 0.00 57 1009.1
20260502030602 76 236 4.0 7.0 0.00 0.00 0.00 56 1009.0
20260502030104 77 240 3.0 7.0 0.00 0.00 0.00 56 1009.0
20260502025603 77 230 2.0 6.0 0.00 0.00 0.00 56 1008.9
20260502025102 78 228 1.0 4.0 0.00 0.00 0.00 55 1008.9
20260502024559 78 225 1.0 4.0 0.00 0.00 0.00 55 1008.8
20260502024103 78 229 1.0 0.0 0.00 0.00 0.00 55 1008.8
20260502022721 79 217 2.0 5.0 0.00 0.00 0.00 53 1008.9
20260502022219 79 234 1.0 5.0 0.00 0.00 0.00 52 1009.0
20260502021731 80 222 1.0 3.0 0.00 0.00 0.00 52 1009.0
20260502021727 80 221 1.0 3.0 0.00 0.00 0.00 52 1009.0
20260502020717 80 227 1.0 3.0 0.00 0.00 0.00 51 1008.9
20260502020156 80 232 1.0 0.0 0.00 0.00 0.00 51 1009.0
20260502015727 81 192 0.0 3.0 0.00 0.00 0.00 50 1009.1
20260502014224 81 176 1.0 3.0 0.00 0.00 0.00 50 1009.2
20260502014219 82 176 1.0 0.0 0.00 0.00 0.00 49 1009.2
20260502012223 83 205 1.0 4.0 0.00 0.00 0.00 46 1009.3
20260502011723 83 187 0.0 0.0 0.00 0.00 0.00 46 1009.4
20260502011223 83 161 0.0 0.0 0.00 0.00 0.00 46 1009.4
20260502010723 83 163 0.0 1.0 0.00 0.00 0.00 45 1009.3
20260502010222 83 128 0.0 3.0 0.00 0.00 0.00 46 1009.2
20260502005722 83 153 0.0 3.0 0.00 0.00 0.00 46 1009.3
20260502005219 83 158 0.0 0.0 0.00 0.00 0.00 47 1009.4
20260502004717 83 157 0.0 1.0 0.00 0.00 0.00 47 1009.4
20260502004208 83 139 0.0 1.0 0.00 0.00 0.00 47 1009.4
20260502003702 83 160 0.0 2.0 0.00 0.00 0.00 46 1009.6
20260502003145 83 160 0.0 2.0 0.00 0.00 0.00 46 1009.6
20260502002642 83 81 0.0 2.0 0.00 0.00 0.00 46 1009.6
20260502002142 83 171 0.0 2.0 0.00 0.00 0.00 45 1009.6
20260502001647 82 150 0.0 0.0 0.00 0.00 0.00 47 1009.6
20260502000601 83 182 0.0 3.0 0.00 0.00 0.00 45 1009.8
20260502000557 82 121 0.0 2.0 0.00 0.00 0.00 46 1009.6
20260501235558 83 180 0.0 3.0 0.00 0.00 0.00 46 1009.7
20260501235058 83 181 0.0 2.0 0.00 0.00 0.00 45 1009.7
20260501234556 83 161 0.0 0.0 0.00 0.00 0.00 46 1009.7
20260501234550 85 162 0.0 2.0 0.00 0.00 0.00 44 1009.8
20260501233529 85 165 0.0 2.0 0.00 0.00 0.00 44 1009.8
20260501233022 85 174 0.0 2.0 0.00 0.00 0.00 44 1009.9
20260501232515 84 221 0.0 2.0 0.00 0.00 0.00 43 1010.1
20260501232014 84 228 0.0 0.0 0.00 0.00 0.00 42 1010.1
20260501231225 85 185 1.0 4.0 0.00 0.00 0.00 43 1010.2
20260501230213 85 232 0.0 3.0 0.00 0.00 0.00 43 1010.3
20260501225701 84 228 0.0 3.0 0.00 0.00 0.00 44 1010.4
20260501225203 84 245 0.0 5.0 0.00 0.00 0.00 43 1010.5
20260501224635 85 248 1.0 5.0 0.00 0.00 0.00 41 1010.7
20260501224129 85 5 0.0 4.0 0.00 0.00 0.00 42 1010.7
20260501223627 85 211 0.0 2.0 0.00 0.00 0.00 43 1010.8
20260501223129 85 204 0.0 3.0 0.00 0.00 0.00 42 1010.9
20260501223123 84 168 0.0 3.0 0.00 0.00 0.00 45 1011.0
20260501222122 84 223 1.0 6.0 0.00 0.00 0.00 43 1011.1
20260501221620 84 246 2.0 6.0 0.00 0.00 0.00 43 1011.1
20260501221113 85 223 2.0 6.0 0.00 0.00 0.00 43 1011.3
20260501221108 85 65 2.0 6.0 0.00 0.00 0.00 43 1011.1
20260501220836 84 249 2.0 6.0 0.00 0.00 0.00 44 1011.3
20260501215609 84 219 1.0 4.0 0.00 0.00 0.00 43 1011.5
20260501215605 84 268 1.0 5.0 0.00 0.00 0.00 43 1011.4
20260501214603 84 355 1.0 4.0 0.00 0.00 0.00 43 1011.5
20260501214057 84 215 2.0 6.0 0.00 0.00 0.00 42 1011.5
20260501213557 84 217 2.0 7.0 0.00 0.00 0.00 43 1011.5
20260501213053 83 246 1.0 7.0 0.00 0.00 0.00 44 1011.4
20260501212555 84 252 1.0 3.0 0.00 0.00 0.00 41 1011.5
20260501212056 83 223 2.0 0.0 0.00 0.00 0.00 43 1011.5
20260501210623 83 339 1.0 3.0 0.00 0.00 0.00 44 1011.5
20260501205315 83 238 1.0 7.0 0.00 0.00 0.00 45 1011.7
20260501204815 83 338 1.0 6.0 0.00 0.00 0.00 44 1011.7
20260501204307 83 258 2.0 6.0 0.00 0.00 0.00 45 1011.8
20260501203809 81 175 2.0 6.0 0.00 0.00 0.00 47 1011.8
20260501203805 82 229 2.0 6.0 0.00 0.00 0.00 47 1011.8
20260501202809 81 219 2.0 0.0 0.00 0.00 0.00 47 1011.7
20260501202804 81 238 2.0 6.0 0.00 0.00 0.00 47 1011.8
20260501201146 82 240 2.0 6.0 0.00 0.00 0.00 47 1011.9
20260501200646 80 227 2.0 5.0 0.00 0.00 0.00 49 1011.9
20260501195449 80 200 2.0 4.0 0.00 0.00 0.00 48 1012.0
20260501194949 80 268 3.0 8.0 0.00 0.00 0.00 47 1012.1
20260501194945 80 236 2.0 8.0 0.00 0.00 0.00 47 1012.0
20260501193944 79 216 2.0 7.0 0.00 0.00 0.00 49 1012.1
20260501193443 79 221 3.0 7.0 0.00 0.00 0.00 50 1012.1
20260501192946 79 236 2.0 6.0 0.00 0.00 0.00 49 1012.3
20260501192443 79 237 2.0 5.0 0.00 0.00 0.00 50 1012.6
20260501192432 78 227 2.0 7.0 0.00 0.00 0.00 50 1012.7
20260501192141 79 231 3.0 7.0 0.00 0.00 0.00 48 1012.7
20260501190929 78 254 2.0 0.0 0.00 0.00 0.00 52 1012.5
20260501185807 78 220 1.0 5.0 0.00 0.00 0.00 49 1012.8
20260501185306 78 184 2.0 6.0 0.00 0.00 0.00 51 1012.9
20260501184754 78 232 2.0 6.0 0.00 0.00 0.00 51 1012.9
20260501184743 78 234 2.0 5.0 0.00 0.00 0.00 51 1013.0
20260501183741 77 198 3.0 0.0 0.00 0.00 0.00 52 1013.1
20260501182322 76 253 3.0 7.0 0.00 0.00 0.00 53 1013.1
20260501181821 75 231 3.0 7.0 0.00 0.00 0.00 52 1013.0
20260501181327 76 212 2.0 6.0 0.00 0.00 0.00 53 1013.1
20260501181323 75 209 2.0 6.0 0.00 0.00 0.00 53 1013.0
20260501181043 75 244 2.0 1.0 0.00 0.00 0.00 54 1012.9
20260501174823 74 213 1.0 6.0 0.00 0.00 0.00 53 1013.0
20260501174324 74 167 2.0 5.0 0.00 0.00 0.00 54 1013.0
20260501173826 74 274 2.0 5.0 0.00 0.00 0.00 54 1012.9
20260501173322 73 205 1.0 5.0 0.00 0.00 0.00 54 1012.8
20260501172821 73 188 2.0 0.0 0.00 0.00 0.00 54 1012.9
20260501171555 72 197 2.0 5.0 0.00 0.00 0.00 55 1012.8
20260501171549 73 227 2.0 5.0 0.00 0.00 0.00 54 1013.0
20260501170553 71 223 2.0 6.0 0.00 0.00 0.00 57 1012.8
20260501170047 71 184 2.0 6.0 0.00 0.00 0.00 57 1012.9
20260501165544 71 178 2.0 5.0 0.00 0.00 0.00 58 1012.8
20260501165031 70 185 2.0 5.0 0.00 0.00 0.00 58 1012.8
20260501164532 70 205 2.0 5.0 0.00 0.00 0.00 58 1012.9
20260501163406 69 184 1.0 5.0 0.00 0.00 0.00 60 1012.7
20260501162909 68 218 1.0 4.0 0.00 0.00 0.00 62 1012.8
20260501162903 68 206 1.0 4.0 0.00 0.00 0.00 61 1012.8
20260501161902 68 270 1.0 4.0 0.00 0.00 0.00 61 1012.8
20260501161403 67 172 2.0 5.0 0.00 0.00 0.00 62 1012.8
20260501160844 67 227 2.0 5.0 0.00 0.00 0.00 63 1012.7
20260501160345 67 181 2.0 1.0 0.00 0.00 0.00 64 1012.7
20260501155036 66 173 2.0 6.0 0.00 0.00 0.00 65 1012.7
20260501155031 65 181 2.0 4.0 0.00 0.00 0.00 67 1012.5
20260501154029 65 249 2.0 7.0 0.00 0.00 0.00 67 1012.5
20260501153528 64 215 2.0 7.0 0.00 0.00 0.00 69 1012.3
20260501153034 63 180 2.0 6.0 0.00 0.00 0.00 69 1012.2
20260501153029 63 212 3.0 6.0 0.00 0.00 0.00 69 1012.2
20260501152523 63 234 2.0 5.0 0.00 0.00 0.00 70 1012.2
20260501152257 63 186 1.0 3.0 0.00 0.00 0.00 71 1012.2
20260501151021 63 180 2.0 5.0 0.00 0.00 0.00 71 1012.2
20260501150523 62 178 2.0 5.0 0.00 0.00 0.00 72 1012.2
20260501150020 62 135 1.0 5.0 0.00 0.00 0.00 71 1012.2
20260501145521 62 181 0.0 5.0 0.00 0.00 0.00 74 1012.2
20260501145023 61 196 0.0 3.0 0.00 0.00 0.00 74 1012.1
20260501144526 60 182 0.0 2.0 0.00 0.00 0.00 76 1011.9
20260501144521 61 155 0.0 2.0 0.00 0.00 0.00 75 1012.0
20260501143521 60 173 0.0 2.0 0.00 0.00 0.00 76 1011.7
20260501143021 59 162 0.0 2.0 0.00 0.00 0.00 77 1011.6